• In Uzbekistan
  • List of Countries
  • For 7 days
  • Water Temperature
  • Satellite Maps
  • Weather Map
  • Weather Widgets
  • user-avatar
    Login

    Hourly Weather Skagen

    Today, 18 August, Friday

    Time Temperature Precipitation Wind Pressure Humidity
    00:00 +16°C° 0.2 mm 7 mps 756 mmHg 95%
    01:00 +15°C° 0 mm 6 mps 756 mmHg 96%
    02:00 +15°C° 0 mm 6 mps 756 mmHg 96%
    03:00 +15°C° 0 mm 6 mps 756 mmHg 96%
    04:00 +14°C° 0 mm 6 mps 756 mmHg 97%
    05:00 +15°C° 0 mm 6 mps 756 mmHg 96%
    06:00 +15°C° 0 mm 5 mps 756 mmHg 95%
    07:00 +15°C° 0 mm 5 mps 756 mmHg 94%
    08:00 +16°C° 0 mm 5 mps 756 mmHg 89%
    09:00 +19°C° 0 mm 5 mps 756 mmHg 84%
    10:00 +20°C° 0 mm 5 mps 756 mmHg 78%
    11:00 +20°C° 0.1 mm 5 mps 756 mmHg 74%
    12:00 +21°C° 0.1 mm 5 mps 756 mmHg 71%
    13:00 +22°C° 0.1 mm 5 mps 756 mmHg 67%
    14:00 +21°C° 0.4 mm 5 mps 755 mmHg 69%
    15:00 +21°C° 0.4 mm 5 mps 755 mmHg 71%
    16:00 +21°C° 0.4 mm 5 mps 755 mmHg 72%
    17:00 +20°C° 0.4 mm 5 mps 755 mmHg 77%
    18:00 +19°C° 0.4 mm 5 mps 754 mmHg 81%
    19:00 +17°C° 0.4 mm 5 mps 754 mmHg 85%
    20:00 +17°C° 0.2 mm 5 mps 754 mmHg 88%
    21:00 +16°C° 0.2 mm 5 mps 754 mmHg 90%
    22:00 +15°C° 0.2 mm 5 mps 754 mmHg 92%
    23:00 +15°C° 0.2 mm 4 mps 754 mmHg 93%

    Tomorrow, 19 August, Saturday

    Time Temperature Precipitation Wind Pressure Humidity
    00:00 +15°C° 0.2 mm 4 mps 754 mmHg 93%
    01:00 +15°C° 0.2 mm 4 mps 753 mmHg 93%
    02:00 +14°C° 0.2 mm 5 mps 753 mmHg 92%
    03:00 +14°C° 0.2 mm 5 mps 753 mmHg 92%
    04:00 +14°C° 0.2 mm 6 mps 753 mmHg 91%
    05:00 +14°C° 0.1 mm 6 mps 753 mmHg 88%
    06:00 +14°C° 0.1 mm 7 mps 753 mmHg 86%
    07:00 +14°C° 0.1 mm 7 mps 754 mmHg 83%
    08:00 +15°C° 0.2 mm 7 mps 754 mmHg 78%
    09:00 +16°C° 0.2 mm 8 mps 754 mmHg 74%
    10:00 +16°C° 0.2 mm 8 mps 754 mmHg 69%
    11:00 +17°C° 0.1 mm 8 mps 754 mmHg 66%
    12:00 +17°C° 0.1 mm 8 mps 754 mmHg 64%
    13:00 +18°C° 0.1 mm 8 mps 755 mmHg 61%
    14:00 +18°C° 0.1 mm 8 mps 755 mmHg 62%
    15:00 +18°C° 0.1 mm 8 mps 755 mmHg 62%
    16:00 +18°C° 0.1 mm 7 mps 755 mmHg 63%
    17:00 +17°C° 0.2 mm 7 mps 755 mmHg 68%
    18:00 +16°C° 0.2 mm 7 mps 755 mmHg 74%
    19:00 +15°C° 0.2 mm 7 mps 755 mmHg 80%
    20:00 +15°C° 0.1 mm 7 mps 755 mmHg 81%
    21:00 +14°C° 0.1 mm 7 mps 755 mmHg 83%
    22:00 +12°C° 0.1 mm 8 mps 755 mmHg 84%
    23:00 +12°C° 0.1 mm 8 mps 755 mmHg 84%

    Day after tomorrow, 20 August, Sunday

    Time Temperature Precipitation Wind Pressure Humidity
    00:00 +12°C° 0.1 mm 8 mps 755 mmHg 85%
    01:00 +12°C° 0.1 mm 8 mps 755 mmHg 85%
    02:00 +11°C° 0.1 mm 8 mps 755 mmHg 86%
    03:00 +11°C° 0.1 mm 8 mps 755 mmHg 87%
    04:00 +11°C° 0.1 mm 8 mps 755 mmHg 88%
    05:00 +12°C° 0.1 mm 8 mps 755 mmHg 87%
    06:00 +12°C° 0.1 mm 8 mps 755 mmHg 86%
    07:00 +13°C° 0.1 mm 8 mps 755 mmHg 85%
    08:00 +15°C° 0.2 mm 8 mps 755 mmHg 82%
    09:00 +16°C° 0.2 mm 8 mps 756 mmHg 79%
    10:00 +16°C° 0.2 mm 8 mps 756 mmHg 77%
    11:00 +17°C° 0.2 mm 8 mps 756 mmHg 75%
    12:00 +17°C° 0.2 mm 8 mps 756 mmHg 74%
    13:00 +17°C° 0.2 mm 8 mps 757 mmHg 72%
    14:00 +17°C° 0.1 mm 8 mps 757 mmHg 72%
    15:00 +17°C° 0.1 mm 9 mps 757 mmHg 72%
    16:00 +17°C° 0.1 mm 9 mps 757 mmHg 72%
    17:00 +16°C° 0.1 mm 8 mps 757 mmHg 75%
    18:00 +16°C° 0.1 mm 8 mps 757 mmHg 78%
    19:00 +15°C° 0.1 mm 7 mps 757 mmHg 81%
    20:00 +15°C° 0 mm 7 mps 757 mmHg 82%
    21:00 +15°C° 0 mm 7 mps 758 mmHg 84%
    22:00 +15°C° 0 mm 6 mps 758 mmHg 85%
    23:00 +14°C° 0 mm 6 mps 758 mmHg 85%

    21 August, Monday

    Time Temperature Precipitation Wind Pressure Humidity
    00:00 +14°C° 0 mm 5 mps 758 mmHg 86%
    01:00 +14°C° 0 mm 4 mps 758 mmHg 86%
    02:00 +14°C° 0 mm 4 mps 758 mmHg 87%
    03:00 +14°C° 0 mm 4 mps 758 mmHg 88%
    04:00 +14°C° 0 mm 4 mps 759 mmHg 89%
    05:00 +14°C° 0 mm 4 mps 759 mmHg 89%
    06:00 +15°C° 0 mm 4 mps 759 mmHg 88%
    07:00 +15°C° 0 mm 4 mps 760 mmHg 87%
    08:00 +17°C° 0 mm 4 mps 760 mmHg 83%
    09:00 +16°C° 0 mm 5 mps 761 mmHg 78%
    10:00 +17°C° 0 mm 5 mps 761 mmHg 74%
    11:00 +19°C° 0 mm 4 mps 761 mmHg 72%
    12:00 +19°C° 0 mm 4 mps 761 mmHg 70%
    13:00 +19°C° 0 mm 4 mps 761 mmHg 67%
    14:00 +19°C° 0 mm 4 mps 761 mmHg 68%
    15:00 +19°C° 0 mm 4 mps 762 mmHg 68%
    16:00 +19°C° 0 mm 4 mps 762 mmHg 69%
    17:00 +18°C° 0 mm 4 mps 762 mmHg 74%
    18:00 +17°C° 0 mm 4 mps 762 mmHg 80%
    19:00 +15°C° 0 mm 4 mps 762 mmHg 85%
    20:00 +15°C° 0 mm 4 mps 762 mmHg 87%
    21:00 +14°C° 0 mm 3 mps 762 mmHg 89%
    22:00 +14°C° 0 mm 3 mps 762 mmHg 91%
    23:00 +14°C° 0 mm 3 mps 763 mmHg 91%

    22 August, Tuesday

    Time Temperature Precipitation Wind Pressure Humidity
    00:00 +13°C° 0 mm 3 mps 763 mmHg 91%
    01:00 +13°C° 0 mm 3 mps 763 mmHg 92%
    02:00 +13°C° 0 mm 3 mps 762 mmHg 92%
    03:00 +13°C° 0 mm 3 mps 762 mmHg 91%
    04:00 +13°C° 0 mm 3 mps 762 mmHg 91%
    05:00 +14°C° 0 mm 3 mps 762 mmHg 89%
    06:00 +14°C° 0 mm 4 mps 762 mmHg 87%
    07:00 +15°C° 0 mm 4 mps 762 mmHg 85%
    08:00 +15°C° 0 mm 4 mps 762 mmHg 82%
    09:00 +16°C° 0 mm 5 mps 762 mmHg 80%
    10:00 +16°C° 0 mm 5 mps 762 mmHg 77%
    11:00 +16°C° 0 mm 5 mps 762 mmHg 77%
    12:00 +16°C° 0 mm 5 mps 762 mmHg 77%
    13:00 +16°C° 0 mm 5 mps 762 mmHg 76%
    14:00 +15°C° 0 mm 5 mps 761 mmHg 79%
    15:00 +15°C° 0 mm 5 mps 761 mmHg 82%
    16:00 +14°C° 0 mm 4 mps 761 mmHg 84%
    17:00 +14°C° 0.1 mm 4 mps 761 mmHg 86%
    18:00 +14°C° 0.1 mm 3 mps 760 mmHg 88%
    19:00 +14°C° 0.1 mm 3 mps 760 mmHg 90%
    20:00 +14°C° 0.1 mm 3 mps 760 mmHg 91%
    21:00 +13°C° 0.1 mm 3 mps 760 mmHg 92%
    22:00 +13°C° 0.1 mm 3 mps 760 mmHg 93%
    23:00 +13°C° 0.1 mm 3 mps 759 mmHg 93%

    23 August, Wednesday

    Time Temperature Precipitation Wind Pressure Humidity
    00:00 +14°C° 0.1 mm 2 mps 759 mmHg 94%
    01:00 +14°C° 0.1 mm 2 mps 759 mmHg 94%
    02:00 +14°C° 0.1 mm 2 mps 759 mmHg 94%
    03:00 +14°C° 0.1 mm 2 mps 759 mmHg 94%
    04:00 +14°C° 0.1 mm 2 mps 758 mmHg 94%
    05:00 +14°C° 0.1 mm 3 mps 758 mmHg 93%
    06:00 +14°C° 0.1 mm 3 mps 758 mmHg 92%
    07:00 +14°C° 0.1 mm 4 mps 758 mmHg 90%
    08:00 +15°C° 0.1 mm 4 mps 759 mmHg 87%
    09:00 +15°C° 0.1 mm 4 mps 759 mmHg 84%
    10:00 +17°C° 0.1 mm 4 mps 759 mmHg 81%
    11:00 +17°C° 0 mm 4 mps 759 mmHg 79%
    12:00 +18°C° 0 mm 3 mps 759 mmHg 76%
    13:00 +18°C° 0 mm 3 mps 759 mmHg 74%
    14:00 +18°C° 0 mm 4 mps 759 mmHg 73%
    15:00 +18°C° 0 mm 4 mps 759 mmHg 73%
    16:00 +17°C° 0 mm 5 mps 759 mmHg 72%
    17:00 +16°C° 0 mm 5 mps 759 mmHg 75%
    18:00 +16°C° 0 mm 5 mps 758 mmHg 78%
    19:00 +15°C° 0 mm 5 mps 758 mmHg 81%
    20:00 +15°C° 0 mm 6 mps 759 mmHg 83%
    21:00 +14°C° 0 mm 6 mps 759 mmHg 84%
    22:00 +14°C° 0 mm 6 mps 759 mmHg 86%
    23:00 +14°C° 0 mm 7 mps 759 mmHg 88%
    Show more